Regional Weather Roundup
Issued by NWS

Home | Current Version | Previous Version | Graphics & Text | Print | Product List | Glossary On
Versions: 1 2 3 4 5 6 7 8 9 10 11 12 13 14 15 16 17 18 19 20 21 22 23 24 25 26 27 28 29 30 31 32 33 34 35 36 37 38 39 40 41 42 43 44 45 46 47 48 49 50
000
ASUS43 KDMX 231106
RWRIA

WEATHER ROUNDUP FOR IOWA
NATIONAL WEATHER SERVICE DES MOINES IA
600 AM CDT MON OCT 23 2017

NOTE: "FAIR" INDICATES FEW OR NO CLOUDS BELOW 12,000 FEET WITH NO
SIGNIFICANT WEATHER AND/OR OBSTRUCTIONS TO VISIBILITY.

* - THESE STATIONS ARE NOT NWS STATIONS...THUS NOT UNDER NWS
QUALITY CONTROL.  THEY ALSO DO NOT REPORT WEATHER SUCH
AS PRECIPITATION OR FOG.

IAZ001>003-012>014-020>022-031>034-043>046-231200-
   NORTHWEST IOWA

CITY           SKY/WX    TMP DP  RH WIND       PRES   REMARKS
CHEROKEE *     PTCLDY    47  34  60 SW3       29.86R
DENISON *      PTCLDY    46  36  66 SW6       29.88R
LE MARS *      PTCLDY    50  36  57 NW7       29.89R
ORANGE CITY *  CLOUDY    48  37  66 NW12      29.87R
SHELDON *      CLOUDY    45  36  70 W10       29.85R
SIOUX CITY     PTCLDY    44  40  85 NW9       29.90R
SPENCER        PTCLDY    43  34  70 W7        29.83R
STORM LAKE *   PTCLDY    50  34  53 W7G15     29.85R
$$

IAZ055>058-069>071-079>083-090>094-231200-
   SOUTHWEST IOWA

CITY           SKY/WX    TMP DP  RH WIND       PRES   REMARKS
ATLANTIC *     PTCLDY    45  37  76 S8        29.86F
AUDUBON *      MOCLDY    48  37  66 CALM      29.86S
CLARINDA *       N/A     41  39  93 SW3       29.91F
COUNCIL BLFS * CLOUDY    48  36  61 SW8       29.87S
CRESTON *      CLEAR     43  37  81 S10       29.90F
HARLAN  *      PTCLDY    45  37  76 SW6       29.90R
LAMONI         CLEAR     44  39  82 S10       29.91F
RED OAK *      PTCLDY    43  37  81 S5        29.87F
SHENANDOAH *   CLOUDY    45  37  76 CALM      29.89R
$$

IAZ047>049-059>061-072>074-084-231200-
   CENTRAL IOWA

CITY           SKY/WX    TMP DP  RH WIND       PRES   REMARKS
AMES           CLEAR     38  38 100 SE5       29.86F WCI  34
ANKENY *       CLEAR     46  39  76 S6        29.88F
BOONE *        PTCLDY    46  37  71 SW8       29.85F
CHARITON *     CLEAR     45  39  81 S8        29.90F
DES MOINES     CLEAR     45  39  79 S7        29.87F
GRINNELL*      CLEAR     42  39  88 S8        29.91F
KNOXVILLE *    CLEAR     45  39  81 S8        29.88F
MARSHALLTOWN   CLEAR     43  40  89 S7        29.88F
NEWTON *       CLEAR     41  39  93 S6        29.90F
PELLA *        CLEAR     42  39  90 SW6       29.91F
PERRY *          N/A     43  40  90 SE6       29.85F
$$

IAZ004>006-015-016-023>025-035-036-231200-
   NORTH CENTRAL IOWA

CITY           SKY/WX    TMP DP  RH WIND       PRES   REMARKS
ALGONA *       CLOUDY    45  37  76 S12       29.83F
CLARION *      PTCLDY    46  41  81 S10       29.84F
ESTHERVILLE    PTCLDY    38  36  92 SW6       29.82S WCI  33
FORT DODGE *   CLOUDY    49  36  61 S9        29.84F
MASON CITY     PTCLDY    46  39  76 S9        29.84F
FOREST CITY *    N/A     45  37  76 S6        29.84S
WEBSTER CITY * MOCLDY    46  39  76 S9        29.82F
IOWA FALLS *     N/A     44  40  85 S6        29.87F
$$

IAZ007>011-017>019-026>030-037>042-050>054-066-231200-
   NORTHEAST IOWA

CITY           SKY/WX    TMP DP  RH WIND       PRES   REMARKS
CEDAR RAPIDS   CLOUDY    40  40 100 CALM      29.90F
CHARLES CITY * CLEAR     43  41  93 S8        29.87F
CLINTON *      MOCLDY    44  44 100 E3        29.96R
DECORAH *      CLOUDY    45  41  87 CALM      29.88F
DUBUQUE        CLOUDY    44  42  93 CALM      29.90F
MONTICELLO *   CLOUDY    39  39 100 CALM      29.90F
OELWEIN *      CLEAR     43  43 100 S8        29.89F
WATERLOO       CLEAR     42  39  89 S7        29.88F
$$

IAZ064-065-067-068-078-231200-
   EAST CENTRAL IOWA

CITY           SKY/WX    TMP DP  RH WIND       PRES   REMARKS
DAVENPORT      CLOUDY    45  45 100 CALM      29.96R
IOWA CITY      CLOUDY    43  41  93 CALM      29.92F FOG
MUSCATINE *    CLOUDY    45  43  93 S5        29.94R FOG
QUAD CITIES    FOG       48  46  93 CALM      29.94R VSB 1/2
$$

IAZ062-063-075>077-085>089-095>099-231200-
   SOUTHEAST IOWA

CITY           SKY/WX    TMP DP  RH WIND       PRES   REMARKS
BURLINGTON     PTCLDY    46  44  93 N3        29.94R
FAIRFIELD *    CLOUDY    46  41  81 W6        29.90F
FORT MADISON * PTCLDY    46  45  93 CALM      29.95R
KEOKUK *       PTCLDY    45  43  93 SE5       29.95R
OSKALOOSA *      N/A     41  40  97 W8        29.90F
OTTUMWA        CLOUDY    43  40  89 S5        29.90F
WASHINGTON *   CLOUDY    46  45  93 VRB5      29.92F
$$

ABBREVIATIONS USED IN REMARKS
   TC - TEMPERATURES IN CELSIUS
  WCI - WIND CHILL INDEX
   HX - HEAT INDEX
  VSB - VISIBILITY
$$





USA.gov is the U.S. government's official web portal to all federal, state and local government web resources and services.